Lexington Weather

Lexington, Massachusetts, USA

54°F
9/29/2023 5:18pm 
  • Lexington Conditions: Heavy rain, Mist, Mostly cloudy
  • Temperature: 54.3°F / 12.4°CColder 2.2°F than last hour.
  • Dew Point: 52.9°FDecreased 2.5°Fsince last hour.
  • Relative Humidity: 95%Decreased 1.0% since last hour.
  • Wind: Calm, 10-min avg: Calm, gust: 1 mph
  • Barometer: 30.20 in Steady
  • Visibility: 1¼ miles
  • Rain Today: 0.70 in
  •   

Regional Weather Roundup
for Boston, MA

        
000
ASUS41 KBOX 262110
RWRBOX

REGIONAL WEATHER ROUNDUP
NATIONAL WEATHER SERVICE BOSTON/NORTON MA
500 PM EDT TUE SEP 26 2023

NOTE:  "FAIR" INDICATES FEW OR NO CLOUDS BELOW 12,000 FEET WITH NO 
SIGNIFICANT WEATHER AND/OR OBSTRUCTIONS TO VISIBILITY.

MAZALL-262200-
EASTERN MASSACHUSETTS
  
CITY           SKY/WX    TMP DP  RH WIND       PRES   REMARKS
BOSTON         PTSUNNY   57  48  72 NE12      30.40F                  
BEVERLY        SUNNY     57  46  66 NE10      30.40F                  
LAWRENCE       SUNNY     58  47  66 NE9       30.42S                  
BEDFORD        SUNNY     59  42  53 NE9       30.38F                  
NORWOOD        MOSUNNY   59  48  67 NE7G18    30.40S                  
MARSHFIELD     CLOUDY    57  48  72 NE8G15    30.39S                  
PLYMOUTH       MOSUNNY   59  49  69 NE13G24   30.37S                  
TAUNTON        PTSUNNY   60  50  69 VRB3      30.37S                  
NEW BEDFORD    SUNNY     58  50  75 NE14G21   30.36R                  
$$

MAZALL-262200-
CAPE COD AND THE ISLANDS
  
CITY           SKY/WX    TMP DP  RH WIND       PRES   REMARKS
FALMOUTH       PTSUNNY   57  50  77 NE12G22   30.36R                  
HYANNIS        MOSUNNY   57  50  77 NE12      30.34S                  
CHATHAM        MOSUNNY   62  49  62 NE15      30.36S                  
PROVINCETOWN   PTSUNNY   57  50  77 NE13      30.39R                  
NANTUCKET      PTSUNNY   59  51  75 NE20G28   30.33S                  
MARTHAS VNYRD  PTSUNNY   59  50  72 NE15G24   30.34R                  
$$
 
MAZALL-262200-
CENTRAL AND WESTERN MASSACHUSETTS
  
CITY           SKY/WX    TMP DP  RH WIND       PRES   REMARKS
WORCESTER      SUNNY     59  45  59 NE6G17    30.39S                  
FITCHBURG        N/A     62  47  57 E5        30.40S                  
ORANGE         SUNNY     64  44  48 E7        30.39S                  
SPRINGFIELD    PTSUNNY   64  47  53 E6        30.34S                  
WESTFIELD      MOSUNNY   66  47  50 N8        30.36S                  
NORTH ADAMS    MOSUNNY   66  44  45 E8        30.37S                  
PITTSFIELD     MOSUNNY   61  48  62 E3        30.37R                  
$$
 
RIZALL-262200-
RHODE ISLAND
  
CITY           SKY/WX    TMP DP  RH WIND       PRES   REMARKS
PROVIDENCE     PTSUNNY   59  48  67 NE17      30.37S                  
NEWPORT        MOSUNNY   57  49  74 NE13      30.35S                  
BLOCK ISLAND   PTSUNNY   57  49  74 NE17G24   30.35R                  
SMITHFIELD     MOSUNNY   58  48  69 NE14      30.39S                  
WESTERLY       MOSUNNY   60  49  66 NE9       30.35R                  
$$
 
CTZALL-262200-
CONNECTICUT
  
CITY           SKY/WX    TMP DP  RH WIND       PRES   REMARKS
BRADLEY INTL   PTSUNNY   65  48  54 NE9       30.36F                  
HARTFORD       MOSUNNY   65  49  56 E6        30.36S                  
BRIDGEPORT     MOSUNNY   62  52  69 NE9       30.34S                  
DANBURY        PTSUNNY   62  48  60 NE12G18   30.36S                  
GROTON         MOSUNNY   62  50  64 NE17      30.34S                  
NEW HAVEN      PTSUNNY   65  51  60 NE8       30.34F                  
CHESTER        MOSUNNY   61  50  67 NE6G13    30.35S                  
MERIDEN        NOT AVBL                                               
WILLIMANTIC    SUNNY     60  48  64 NE12      30.39S                  
OXFORD         MOSUNNY   60  48  64 NE12      30.36F                  
$$

MEZ002-015-021-024-NHZ003-005-008-011-012-014-VTZ005-008-262200-
NORTHERN NEW ENGLAND
  
CITY           SKY/WX    TMP DP  RH WIND       PRES   REMARKS
PORTLAND ME    SUNNY     64  45  49 VRB3      30.40F                  
BANGOR ME      MOSUNNY   67  41  38 N9        30.39S                  
CONCORD NH     SUNNY     65  43  44 NE7       30.39F                  
MANCHESTER NH  MOSUNNY   65  46  50 NE6       30.38S                  
NASHUA NH      SUNNY     64  49  57 E8        30.40S                  
PORTSMOUTH NH  PTSUNNY   59  48  67 SE8       30.39F                  
JAFFREY NH     SUNNY     64  44  48 VRB6      30.39S                  
KEENE NH       SUNNY     65  43  44 NE5       30.38F                  
BURLINGTON VT  PTSUNNY   66  48  52 N10       30.41S                  
MT. WASHINGTON PTSUNNY   43   1  17 NE10        N/A                   
$$

NYZ052-076-262200-
EASTERN NEW YORK
  
CITY           SKY/WX    TMP DP  RH WIND       PRES   REMARKS
ALBANY         PTSUNNY   67  50  54 NW6       30.38S                  
NEW YORK CITY  CLOUDY    61  54  77 NE14      30.33F                  
$$
 
ANZALL-262200-
MARINE OBSERVATIONS
  
STATION/POSITION TIME  TEMP    WIND        PRES    VSBY  WAVE
                       AIR SEA DIR/SP/G                  HT/PER
                 (UTC) (F)     (DEG/KT/KT) (MB)    (MI)  (FT/S)
BOSTON BUOY      2050   56 63   30/ 12/ 17 1029.2F         6/ 7
BUZZARDS BAY     2000   58      30/ 23/ 24 1027.4F
NANTUCKET SOUND  2050   59 65   40/ 19/ 25 1027.0F         3/ 4
MASS BAY-STELLWA NOT AVBL
ISLE OF SHOALS   2000   56      70/ 14/ 15 1029.1F
S OF BLOCK IS    2056      61                N/A           9/ 8
$$

......................KEY.........................
  SKY/WX - SKY CONDITION/PRESENT WEATHER
  TMP    - TEMPERATURE IN FAHRENHEIT
  DWPT   - DEWPOINT IN FAHRENHEIT
  RH     - RELATIVE HUMIDITY IN PERCENT
  WIND   - DIRECTION AND SPEED IN MPH
  PRES   - MEAN SEA LEVEL PRESSURE IN INCHES OF HG
  WCI    - WIND CHILL INDEX
  VSB    - VISIBILITY IN MILES
  HX     - HEAT INDEX
  TC     - TEMPERATURE IN CELSIUS
  VRB    - VARIABLE WIND DIRECTION
  N/A    - NOT AVAILABLE
  
      

Other recent Regional Weather Roundups

Fri Sep 29, 5:10pm EDT

Fri Sep 29, 4:10pm EDT

Fri Sep 29, 3:10pm EDT

Fri Sep 29, 2:10pm EDT

Fri Sep 29, 1:10pm EDT

Fri Sep 29, 12:10pm EDT

Fri Sep 29, 11:10am EDT

Fri Sep 29, 10:10am EDT

Fri Sep 29, 9:10am EDT

Fri Sep 29, 8:10am EDT

Fri Sep 29, 7:10am EDT

Fri Sep 29, 6:10am EDT

Fri Sep 29, 5:10am EDT

Fri Sep 29, 4:10am EDT

Fri Sep 29, 3:10am EDT

Fri Sep 29, 2:10am EDT

Fri Sep 29, 1:10am EDT

Fri Sep 29, 12:10am EDT

Thu Sep 28, 11:10pm EDT

Thu Sep 28, 10:10pm EDT

Thu Sep 28, 9:10pm EDT

Thu Sep 28, 8:10pm EDT

Thu Sep 28, 7:10pm EDT

Thu Sep 28, 6:10pm EDT

Thu Sep 28, 5:10pm EDT

Thu Sep 28, 4:10pm EDT

Thu Sep 28, 3:10pm EDT

Thu Sep 28, 2:10pm EDT

Thu Sep 28, 1:10pm EDT

Thu Sep 28, 12:10pm EDT

Thu Sep 28, 11:10am EDT

Thu Sep 28, 10:10am EDT

Thu Sep 28, 9:10am EDT

Thu Sep 28, 8:10am EDT

Thu Sep 28, 7:10am EDT

Thu Sep 28, 6:10am EDT

Thu Sep 28, 5:10am EDT

Thu Sep 28, 4:10am EDT

Thu Sep 28, 3:10am EDT

Thu Sep 28, 2:10am EDT

Thu Sep 28, 1:10am EDT

Thu Sep 28, 12:10am EDT

Wed Sep 27, 11:10pm EDT

Wed Sep 27, 10:10pm EDT

Wed Sep 27, 9:10pm EDT

Wed Sep 27, 8:10pm EDT

Wed Sep 27, 7:10pm EDT

Wed Sep 27, 6:10pm EDT

Wed Sep 27, 5:10pm EDT

Wed Sep 27, 4:10pm EDT

Wed Sep 27, 3:10pm EDT

Wed Sep 27, 2:10pm EDT

Wed Sep 27, 1:10pm EDT

Wed Sep 27, 12:10pm EDT

Wed Sep 27, 11:10am EDT

Wed Sep 27, 10:10am EDT

Wed Sep 27, 9:10am EDT

Wed Sep 27, 8:10am EDT

Wed Sep 27, 7:10am EDT

Wed Sep 27, 6:10am EDT

Wed Sep 27, 5:10am EDT

Wed Sep 27, 4:10am EDT

Wed Sep 27, 3:10am EDT

Wed Sep 27, 2:10am EDT

Wed Sep 27, 1:10am EDT

Wed Sep 27, 12:10am EDT

Tue Sep 26, 11:10pm EDT

Tue Sep 26, 10:10pm EDT

Tue Sep 26, 9:10pm EDT

Tue Sep 26, 8:10pm EDT

Tue Sep 26, 7:10pm EDT

Tue Sep 26, 6:10pm EDT

Tue Sep 26, 4:10pm EDT

Tue Sep 26, 3:10pm EDT

Tue Sep 26, 2:10pm EDT

Tue Sep 26, 1:10pm EDT

Tue Sep 26, 12:10pm EDT

Tue Sep 26, 11:10am EDT

Tue Sep 26, 10:10am EDT

Tue Sep 26, 9:10am EDT

Tue Sep 26, 8:10am EDT

Tue Sep 26, 7:10am EDT

Tue Sep 26, 6:10am EDT

Tue Sep 26, 5:10am EDT

Tue Sep 26, 4:10am EDT

Tue Sep 26, 3:10am EDT

Tue Sep 26, 2:10am EDT

Tue Sep 26, 1:10am EDT

Tue Sep 26, 12:10am EDT

Mon Sep 25, 11:10pm EDT

Mon Sep 25, 10:10pm EDT

Mon Sep 25, 9:10pm EDT

Mon Sep 25, 8:10pm EDT

Mon Sep 25, 7:10pm EDT

Mon Sep 25, 6:10pm EDT

Mon Sep 25, 5:10pm EDT

Mon Sep 25, 4:10pm EDT

Mon Sep 25, 2:10pm EDT

Mon Sep 25, 1:10pm EDT

Mon Sep 25, 12:10pm EDT

Mon Sep 25, 11:10am EDT

Mon Sep 25, 10:10am EDT

Mon Sep 25, 9:10am EDT

Mon Sep 25, 8:10am EDT

Mon Sep 25, 7:10am EDT

Mon Sep 25, 6:10am EDT

Mon Sep 25, 5:10am EDT

Mon Sep 25, 4:10am EDT

Mon Sep 25, 3:10am EDT

Mon Sep 25, 2:10am EDT

Mon Sep 25, 1:10am EDT

Mon Sep 25, 12:10am EDT

Sun Sep 24, 11:10pm EDT

Sun Sep 24, 10:10pm EDT

Sun Sep 24, 9:10pm EDT

Sun Sep 24, 8:10pm EDT

Sun Sep 24, 7:10pm EDT

Sun Sep 24, 6:10pm EDT

Sun Sep 24, 5:10pm EDT

Sun Sep 24, 4:10pm EDT

Sun Sep 24, 3:10pm EDT

Sun Sep 24, 2:10pm EDT

Sun Sep 24, 1:10pm EDT

Sun Sep 24, 12:10pm EDT

Sun Sep 24, 11:10am EDT

Sun Sep 24, 10:10am EDT

Sun Sep 24, 9:10am EDT

Sun Sep 24, 8:10am EDT

Sun Sep 24, 7:10am EDT

Sun Sep 24, 6:10am EDT

Sun Sep 24, 5:10am EDT

Sun Sep 24, 4:10am EDT

Sun Sep 24, 3:10am EDT

Sun Sep 24, 2:10am EDT

Sun Sep 24, 1:10am EDT

Sun Sep 24, 12:10am EDT

Sat Sep 23, 11:10pm EDT

Sat Sep 23, 10:10pm EDT

Sat Sep 23, 9:10pm EDT

Sat Sep 23, 8:10pm EDT

Sat Sep 23, 7:10pm EDT

Sat Sep 23, 6:10pm EDT

Sat Sep 23, 5:10pm EDT

Sat Sep 23, 4:10pm EDT

Sat Sep 23, 3:10pm EDT

Sat Sep 23, 2:10pm EDT

Sat Sep 23, 1:10pm EDT

Sat Sep 23, 12:10pm EDT

Sat Sep 23, 11:10am EDT

Sat Sep 23, 10:10am EDT

Sat Sep 23, 9:10am EDT

Sat Sep 23, 8:10am EDT

Sat Sep 23, 7:10am EDT

Sat Sep 23, 6:10am EDT

Sat Sep 23, 5:10am EDT

Sat Sep 23, 4:10am EDT

Sat Sep 23, 3:10am EDT

Sat Sep 23, 2:10am EDT

Sat Sep 23, 1:10am EDT

Sat Sep 23, 12:10am EDT

Fri Sep 22, 11:10pm EDT

Fri Sep 22, 10:10pm EDT

Fri Sep 22, 9:10pm EDT

Fri Sep 22, 8:10pm EDT

Fri Sep 22, 7:10pm EDT

Fri Sep 22, 6:10pm EDT